Dewpoint
58 59 59 56 55 54 54 55 54 54 53 52 52 52 51 51 51 50 50 48 49 49 49 49 49 49 48 49 47 46 46 46 47 48 48 48 48 49 49 50 49 48 49 48 49 49 49 49 49 48 47 46 46 46 47 47 47 47 46 44 43 43 40 39 37 38 39 44 40 35 36 41 40 40 41 41 41 45 48 44 43 42 40 38 39
58 58 58 55 54 54 54 54 54 53 53 52 51 51 50 50 50 49 48 49 48 48 48 49 49 48 48 49 48 47 47 46 48 48 47 47 47 49 48 49 49 48 47 48 48 48 47 47 47 47 47 46 45 42 42 44 45 45 44 43 42 42 43 42 40 39 36 40 37 40 38 35 34 30 31 33 32 38 41 43 40 36 35 36 35
58 58 58 55 54 54 54 54 53 53 53 53 52 51 51 50 50 48 49 50 50 47 48 48 47 48 48 48 48 47 48 48 48 47 46 46 47 47 49 48 48 48 48 48 47 47 46 47 46 46 47 45 46 45 45 44 44 44 45 45 43 44 44 41 41 39 37 38 40 37 38 39 34 30 31 33 38 39 33 39 37 35 36 35 32
57 58 58 55 54 54 53 53 52 53 53 53 52 52 52 51 51 49 49 50 50 49 48 46 47 47 47 47 47 48 49 48 48 48 48 48 48 48 48 48 48 47 48 47 46 45 45 45 45 46 46 46 46 46 46 47 46 45 45 45 45 45 45 43 40 40 39 37 40 36 38 40 39 40 34 38 40 39 36 37 39 35 36 37 33
59 58 58 56 54 53 52 52 52 52 52 52 52 51 51 51 51 50 49 48 50 50 49 47 46 46 47 46 47 48 49 48 48 48 49 48 48 48 48 48 47 47 47 46 49 45 46 44 45 47 46 47 47 46 46 46 47 47 45 45 45 46 47 44 44 44 40 37 39 41 41 41 42 41 37 34 39 41 41 42 39 37 36 38 36
56 56 55 57 57 54 52 52 53 52 51 51 51 51 51 50 51 50 50 49 50 50 49 49 46 45 45 46 48 49 48 47 46 48 49 48 47 47 47 47 47 46 46 47 47 46 45 44 46 48 46 46 47 48 48 47 47 47 45 45 46 47 46 45 44 42 39 39 39 39 40 39 39 42 39 36 41 42 42 43 44 45 44 42 43
56 56 57 57 58 57 54 53 55 53 51 50 50 50 50 50 51 50 52 51 51 50 48 49 49 45 45 47 49 49 48 47 47 49 50 49 47 46 46 47 48 47 46 46 46 46 44 45 46 47 47 47 49 49 48 48 48 47 47 46 46 47 46 46 46 44 43 42 42 41 39 41 41 40 42 39 41 42 42 42 42 43 44 42 42
56 56 56 57 57 57 58 57 56 54 53 51 51 50 49 50 51 51 52 51 51 49 47 48 49 47 47 47 49 49 48 48 48 49 50 49 48 48 48 49 49 47 46 46 46 46 46 46 46 47 47 49 49 49 49 48 48 47 48 49 48 46 46 46 45 45 45 43 42 41 42 41 43 44 44 42 41 41 43 43 40 40 41 42 42
55 55 56 56 55 56 57 57 57 56 56 54 53 52 51 51 52 52 52 52 52 50 48 48 48 48 48 48 48 49 49 49 50 50 50 50 50 49 49 50 50 49 47 47 48 48 49 48 48 49 51 53 50 49 49 49 49 48 48 47 47 46 46 45 46 45 44 44 43 44 43 43 43 42 41 40 40 41 42 42 41 41 41 41 42
56 55 55 55 55 56 56 56 56 56 56 55 55 54 54 54 54 53 53 53 52 49 48 49 47 47 47 48 48 48 48 49 51 48 48 49 50 49 50 49 49 51 51 50 50 51 52 50 51 54 53 53 50 48 47 47 49 49 49 48 48 47 46 45 44 45 45 44 44 43 42 41 42 43 42 42 42 41 39 39 38 39 39 39 40
55 55 55 55 55 56 56 56 56 56 55 55 55 56 55 54 54 54 53 53 53 52 52 51 50 46 47 47 47 48 49 49 46 44 43 45 49 49 50 50 49 51 51 51 51 52 51 51 50 53 52 52 49 44 44 45 46 46 47 48 49 48 46 45 45 45 45 44 44 42 41 42 42 42 41 42 41 40 39 40 40 39 38 36 36
41 42 48 53 56 56 56 56 56 55 56 55 54 54 54 54 54 53 53 53 52 52 53 52 52 51 49 48 47 48 48 47 44 42 42 42 46 50 51 51 50 51 51 52 52 52 52 51 50 50 49 49 47 44 43 41 40 40 41 40 40 43 46 47 46 45 44 44 44 43 42 42 42 41 40 40 40 41 40 40 38 38 36 36 36
37 37 37 37 38 42 47 48 49 51 52 52 53 54 54 54 53 53 53 54 52 52 52 52 53 53 52 51 49 49 49 46 44 43 42 41 41 46 50 51 52 52 53 53 52 52 52 52 51 51 51 52 52 47 45 42 40 39 39 38 37 36 36 41 44 48 46 45 44 44 43 43 42 41 42 40 40 40 38 38 37 37 36 35 35
36 36 35 35 36 36 38 40 42 44 45 45 45 45 46 47 51 53 54 54 52 52 52 52 52 52 52 51 52 51 50 45 42 42 42 41 40 42 50 52 52 52 53 53 53 52 52 52 51 51 51 52 52 49 46 43 41 40 40 39 37 39 39 38 39 43 45 46 45 44 45 44 42 42 43 41 39 39 38 37 37 36 35 32 34
37 36 36 36 36 36 37 38 39 41 43 43 43 43 44 44 44 47 50 52 52 53 52 51 51 51 52 50 50 51 52 45 42 42 41 40 40 42 50 52 53 53 52 52 52 52 52 52 51 51 50 50 51 51 48 44 42 42 40 40 40 39 38 39 41 43 44 45 46 46 46 44 42 42 42 41 40 39 37 36 36 34 34 35 33
36 37 36 36 37 37 37 38 38 38 38 39 39 40 41 42 42 43 43 45 47 49 49 49 50 50 50 50 50 50 51 43 42 42 43 43 42 49 51 52 53 52 52 52 51 51 51 52 51 51 50 51 49 47 47 44 45 44 42 40 37 35 35 38 37 38 44 45 46 45 42 40 39 39 40 39 39 39 38 36 35 34 33 32 31
35 36 37 37 38 37 38 38 38 37 37 37 37 38 38 38 38 41 39 40 42 44 45 47 49 50 49 48 49 50 50 47 42 42 43 42 45 50 51 51 51 52 52 52 52 52 51 51 51 49 49 50 46 43 44 44 47 46 44 40 38 36 34 34 36 37 38 38 38 37 37 37 37 37 37 37 37 36 34 33 32 32 32 30 32
36 36 37 36 37 37 38 39 37 38 37 37 37 37 38 37 37 39 38 38 38 40 42 44 46 48 49 51 50 49 50 48 45 43 42 42 46 51 51 51 52 51 51 50 50 51 51 51 52 51 49 49 43 41 42 46 49 47 44 40 36 36 33 35 35 34 36 35 35 35 35 35 36 37 37 37 38 39 33 32 33 33 33 32 31
36 36 36 36 37 37 37 38 39 37 37 37 38 37 37 38 38 38 38 38 39 40 41 41 42 43 46 48 52 51 51 50 46 43 43 42 44 49 50 50 50 50 51 51 50 50 50 51 50 49 49 47 40 40 41 46 50 47 46 43 42 36 37 34 32 31 31 31 31 31 31 36 36 35 36 38 38 39 35 34 34 34 34 33 33
37 38 37 37 37 38 38 38 38 37 37 37 37 38 38 37 37 37 37 37 37 37 37 38 39 40 42 44 47 49 50 51 49 44 43 43 42 48 49 49 49 49 50 50 50 48 48 49 46 42 42 41 39 39 41 43 50 49 46 45 44 42 36 35 33 31 32 33 32 36 34 35 36 35 34 34 37 40 37 37 37 36 35 33 34
41 39 39 37 37 37 37 37 37 38 38 38 38 38 37 37 36 36 36 36 36 36 36 36 37 38 40 43 45 46 49 50 50 45 44 43 43 44 49 50 50 50 50 49 49 49 47 47 44 39 39 40 40 39 39 39 44 46 46 46 45 43 37 35 36 37 37 38 38 39 40 38 37 36 36 34 34 34 36 36 36 36 35 33 31
38 38 39 39 38 36 36 37 38 39 38 38 37 37 37 37 36 36 35 35 35 35 35 36 36 36 37 40 41 43 46 47 50 47 45 44 43 42 47 49 50 50 50 49 48 47 47 46 43 39 37 38 38 38 38 39 41 47 47 42 39 36 36 37 38 40 40 39 39 37 35 36 36 37 37 36 36 36 34 34 35 35 34 34 33
36 36 36 36 36 36 36 36 37 38 37 37 36 35 35 35 35 35 35 35 35 35 35 35 34 34 34 35 37 40 43 44 43 45 44 44 43 41 42 46 45 48 50 49 49 48 45 43 42 39 37 38 38 38 39 40 42 46 41 39 37 36 38 40 40 39 38 36 34 34 33 34 35 34 34 34 34 34 34 34 34 34 35 35 33
36 36 36 36 36 36 36 36 36 36 36 36 36 35 35 35 35 35 35 35 35 34 34 35 34 33 33 33 34 36 38 42 40 40 43 43 43 42 41 41 43 47 49 50 48 45 42 41 40 37 37 37 37 38 38 39 43 39 38 38 36 37 39 38 38 37 34 33 34 33 33 33 34 34 34 35 34 33 33 33 33 33 33 33 33
36 35 35 35 35 36 36 36 36 36 36 36 35 36 35 35 35 35 35 35 34 34 34 34 33 33 32 33 33 34 35 37 40 41 41 43 42 41 40 40 40 41 47 48 46 45 41 39 37 35 35 35 34 34 34 34 34 36 36 36 38 39 38 37 35 34 34 33 33 33 32 32 33 34 33 33 34 33 33 33 33 33 32 32 31
36 35 35 35 35 35 35 36 36 36 36 36 36 36 36 35 35 35 34 34 34 33 33 33 33 32 32 32 32 33 34 36 40 41 43 43 42 40 39 39 40 40 43 47 42 40 38 37 35 34 33 33 33 34 33 33 33 34 35 37 39 39 37 36 34 33 32 32 32 31 32 32 32 33 33 32 31 31 31 31 31 31 31 31 30
35 34 34 35 35 35 35 36 36 36 35 35 35 36 36 35 35 35 34 34 33 33 33 33 33 32 32 32 32 33 35 36 39 41 43 43 43 43 43 42 40 39 42 44 40 40 37 36 34 33 33 33 33 33 33 33 34 36 37 37 36 35 35 34 32 32 32 31 31 31 32 32 32 31 31 31 31 31 32 31 30 29 30 28 28
34 34 35 35 35 35 35 34 35 35 35 35 35 35 35 35 35 34 34 34 34 33 33 33 33 33 33 33 33 33 34 36 37 38 40 42 43 43 43 43 43 44 45 44 41 39 37 35 33 34 34 33 33 33 31 31 33 33 33 32 32 33 35 35 34 32 31 31 31 31 31 31 31 31 31 31 30 30 30 31 30 29 29 28 27
35 34 35 35 35 36 36 36 36 36 35 35 35 35 35 35 35 35 35 35 34 34 34 34 34 34 33 33 33 33 34 35 36 36 37 38 40 43 43 44 44 44 43 40 38 36 36 34 34 34 32 31 30 30 31 32 32 32 32 31 31 32 32 32 31 31 31 31 30 30 30 30 30 30 30 29 29 29 28 30 28 29 27 27 27
32 33 34 34 35 35 35 36 36 35 35 35 35 35 34 35 35 35 34 35 35 34 34 33 35 34 34 34 34 33 34 35 35 35 35 36 36 37 39 40 38 39 35 35 37 35 34 33 33 32 31 30 29 29 30 32 32 31 31 32 32 32 31 30 30 29 30 30 30 30 30 30 29 29 28 28 27 28 28 30 28 27 27 26 25
32 32 33 33 34 35 35 35 35 35 35 35 35 35 35 35 35 35 35 35 35 35 34 34 34 34 35 34 34 34 34 34 34 35 35 35 36 37 38 38 39 35 35 34 33 33 32 33 32 32 31 30 29 29 31 32 32 31 30 29 30 30 30 29 29 30 30 30 30 30 29 30 29 28 28 27 27 27 28 27 27 27 27 27 27
31 32 32 34 35 35 36 35 35 35 35 36 36 36 36 36 36 35 35 35 35 35 35 34 34 34 34 34 34 34 34 34 35 35 36 36 36 37 37 38 36 35 34 34 32 31 31 32 32 31 30 29 29 30 32 33 33 32 31 30 30 30 30 29 31 30 30 30 29 29 29 30 29 28 28 27 26 27 27 26 26 27 28 28 28
31 32 32 34 34 35 35 35 35 35 35 35 35 35 35 35 35 35 35 35 35 35 35 34 34 34 34 34 34 34 34 34 35 36 36 36 36 37 37 36 35 35 34 34 33 32 31 31 30 33 32 30 31 32 33 33 33 32 32 31 30 30 29 30 31 30 30 30 29 29 29 29 28 26 26 26 26 25 26 25 27 28 28 27 26
31 31 33 34 35 35 36 36 34 34 34 35 36 36 36 36 36 36 35 35 35 35 35 34 34 34 34 34 34 34 34 35 35 35 35 35 36 35 35 33 34 34 35 34 33 33 33 34 34 34 34 33 33 33 33 32 33 33 32 33 32 30 30 30 30 30 30 30 30 29 29 28 27 27 26 26 26 26 26 25 26 24 25 26 26
31 32 33 33 34 33 34 33 32 33 35 36 36 36 36 36 36 35 35 35 34 34 34 34 34 34 33 33 34 34 34 35 35 35 35 35 35 34 35 35 34 35 36 36 36 36 34 34 34 35 34 33 33 33 34 35 34 33 32 31 29 30 30 30 30 29 30 30 29 28 27 28 28 27 27 28 27 26 25 25 25 25 25 25 26
32 32 33 34 33 32 32 32 32 34 35 36 35 34 35 35 35 35 35 34 34 33 32 33 33 33 34 34 34 34 34 34 34 35 35 35 35 35 33 32 32 34 35 36 37 37 37 37 36 36 36 35 34 34 35 34 34 34 34 32 30 30 30 30 30 30 30 30 28 28 29 28 28 28 28 28 27 26 25 24 24 25 25 26 27
31 31 32 32 33 32 31 31 33 35 34 34 34 35 34 33 32 32 31 31 31 31 32 33 33 34 34 34 34 34 34 34 34 34 34 34 34 34 33 33 33 34 34 35 36 36 37 37 37 37 36 35 35 36 35 35 35 33 32 30 29 30 30 30 30 30 29 28 28 28 28 28 28 28 28 27 24 24 24 24 24 26 27 29 30
30 30 31 31 33 34 32 32 34 33 33 32 34 34 33 32 32 32 31 32 32 32 33 33 34 34 34 34 37 33 30 33 33 33 34 34 32 31 32 33 33 34 34 34 34 36 37 38 38 37 37 37 36 35 35 34 33 31 30 30 30 30 31 30 30 30 29 28 28 27 28 27 27 27 26 26 24 23 23 24 25 26 28 30 30
31 32 32 33 33 34 34 34 34 34 34 33 32 32 32 32 31 32 33 33 33 33 33 34 35 34 34 33 32 32 32 29 28 27 27 28 30 32 33 34 35 35 35 35 35 36 37 37 37 38 38 38 36 36 34 31 30 30 30 30 30 30 30 29 29 28 28 27 27 25 26 24 23 23 23 23 22 22 22 24 27 27 28 30 30
31 31 31 32 31 32 33 33 34 34 34 34 32 31 31 31 31 31 32 33 33 33 33 33 33 33 32 32 33 32 30 30 29 28 28 31 32 33 34 34 35 35 36 36 36 36 36 37 37 37 37 37 37 36 34 32 31 30 30 29 29 29 29 29 28 28 27 27 26 24 24 22 20 20 20 21 21 20 22 24 26 29 30 30 30
30 30 32 31 31 32 33 33 33 33 33 33 32 30 31 31 31 30 30 31 32 32 32 32 31 32 32 33 33 33 30 30 29 31 30 31 31 33 34 34 35 35 36 35 36 36 37 36 35 35 35 34 34 33 33 31 30 30 29 29 29 29 29 28 27 26 26 26 26 24 22 22 22 23 23 22 27 24 23 25 28 30 30 30 30
30 31 30 30 30 30 31 31 32 32 32 31 31 30 30 30 30 29 30 31 31 31 31 31 32 32 32 33 33 34 33 33 33 32 32 32 33 34 34 34 35 36 35 36 36 34 34 34 33 33 33 32 31 31 30 30 29 29 29 29 29 29 28 28 27 26 26 25 23 23 23 23 23 24 24 29 22 21 24 27 29 30 31 31 31
31 30 30 30 30 31 31 31 31 31 32 32 31 31 31 31 31 30 29 29 30 31 31 31 31 32 32 32 32 33 32 34 33 34 33 33 34 33 34 34 35 36 36 35 35 34 33 32 31 31 31 31 31 30 30 30 30 30 29 29 29 28 28 27 27 26 25 25 24 23 23 24 24 22 21 22 22 24 26 29 30 30 30 30 31
30 30 29 29 29 31 32 31 30 31 33 32 31 31 31 31 31 30 30 30 31 31 31 31 31 31 31 31 32 32 32 33 33 33 33 33 33 33 33 33 34 34 33 33 33 33 32 31 30 31 31 31 32 32 30 30 30 29 29 29 28 27 27 26 26 25 25 25 24 23 22 22 22 20 23 24 22 25 26 27 28 30 30 30 30
30 30 29 29 29 30 30 29 30 32 33 32 31 31 31 30 31 30 30 32 32 33 33 33 32 32 32 32 31 32 32 33 32 33 33 33 32 32 32 33 32 32 31 31 32 32 31 31 30 30 30 30 31 30 30 30 30 30 29 28 27 27 26 25 23 23 24 25 25 23 22 21 20 21 21 22 24 24 26 28 30 30 30 30 30
29 30 29 29 29 30 30 29 30 29 30 31 32 32 31 30 29 31 31 31 31 32 33 33 33 32 32 32 32 32 32 32 33 33 32 32 32 32 32 31 31 31 31 30 31 31 30 30 30 29 29 28 29 28 28 28 28 27 27 27 26 25 23 22 21 24 23 23 22 21 22 22 21 24 26 23 24 27 28 30 30 30 30 30 30
29 28 29 29 29 29 30 29 29 29 29 30 31 33 33 31 30 30 30 30 31 32 33 33 33 32 32 32 32 32 32 32 32 32 32 32 32 32 31 31 31 31 31 31 31 30 30 30 29 28 28 27 27 26 26 26 26 26 27 26 26 25 23 22 23 22 22 22 21 21 21 22 22 22 24 24 25 26 27 28 29 30 30 30 29
29 28 29 29 29 29 29 29 29 31 30 30 30 32 32 31 30 31 31 30 31 33 33 33 33 33 33 33 33 33 33 32 32 32 32 32 32 32 32 32 32 32 32 32 31 31 31 30 30 29 29 28 27 27 26 26 26 26 26 26 26 26 25 25 24 24 22 21 21 20 21 21 21 21 23 23 24 25 27 28 29 30 30 29 29
29 28 29 28 29 29 29 29 30 31 32 32 32 32 32 31 32 33 33 32 31 33 33 33 33 33 33 33 33 33 33 33 33 33 33 33 33 32 32 32 32 32 32 31 31 31 30 30 30 29 29 28 28 26 26 25 25 25 25 25 25 26 26 26 26 26 25 24 22 22 22 22 21 22 24 23 24 24 25 27 29 30 29 27 27
29 29 29 28 29 29 29 29 29 30 31 32 33 33 33 33 33 31 30 31 33 33 33 33 33 33 33 33 33 33 33 33 33 33 33 33 33 33 32 32 32 32 31 31 30 30 29 29 28 28 27 26 26 25 25 25 25 25 24 24 25 25 25 26 26 26 26 25 25 24 23 22 21 20 21 22 22 23 23 26 28 29 28 26 25
30 29 29 28 28 28 29 29 28 28 29 31 33 33 32 31 30 31 32 33 33 33 33 33 33 33 33 33 33 33 33 33 33 33 33 33 33 32 32 32 31 30 30 29 28 28 27 26 26 26 26 26 25 23 23 23 23 23 24 24 24 25 25 25 25 26 26 26 25 24 24 23 23 22 23 22 22 22 26 26 25 26 27 27 26